Index of /20260419/WXO-DD/model_rdps/10km/18/038
Name Last modified Size Description
Parent Directory -
20260419T18Z_MSC_RDPS_AbsoluteVorticity_IsbL-0250_RLatLon0.09_PT038H.grib2 2026-04-19 20:51 604K
20260419T18Z_MSC_RDPS_AbsoluteVorticity_IsbL-0500_RLatLon0.09_PT038H.grib2 2026-04-19 20:51 565K
20260419T18Z_MSC_RDPS_AbsoluteVorticity_IsbL-0700_RLatLon0.09_PT038H.grib2 2026-04-19 20:51 630K
20260419T18Z_MSC_RDPS_AbsoluteVorticity_IsbL-0850_RLatLon0.09_PT038H.grib2 2026-04-19 20:51 788K
20260419T18Z_MSC_RDPS_AirTemp_AGL-120m_RLatLon0.09_PT038H.grib2 2026-04-19 20:51 382K
20260419T18Z_MSC_RDPS_AirTemp_AGL-2m_RLatLon0.09_PT038H.grib2 2026-04-19 20:51 647K
20260419T18Z_MSC_RDPS_AirTemp_AGL-40m_RLatLon0.09_PT038H.grib2 2026-04-19 20:51 401K
20260419T18Z_MSC_RDPS_AirTemp_AGL-80m_RLatLon0.09_PT038H.grib2 2026-04-19 20:51 391K
20260419T18Z_MSC_RDPS_AirTemp_IsbL-0001_RLatLon0.09_PT038H.grib2 2026-04-19 20:51 293K
20260419T18Z_MSC_RDPS_AirTemp_IsbL-0005_RLatLon0.09_PT038H.grib2 2026-04-19 20:51 333K
20260419T18Z_MSC_RDPS_AirTemp_IsbL-0010_RLatLon0.09_PT038H.grib2 2026-04-19 20:51 305K
20260419T18Z_MSC_RDPS_AirTemp_IsbL-0020_RLatLon0.09_PT038H.grib2 2026-04-19 20:51 328K
20260419T18Z_MSC_RDPS_AirTemp_IsbL-0030_RLatLon0.09_PT038H.grib2 2026-04-19 20:51 347K
20260419T18Z_MSC_RDPS_AirTemp_IsbL-0050_RLatLon0.09_PT038H.grib2 2026-04-19 20:51 330K
20260419T18Z_MSC_RDPS_AirTemp_IsbL-0100_RLatLon0.09_PT038H.grib2 2026-04-19 20:51 435K
20260419T18Z_MSC_RDPS_AirTemp_IsbL-0150_RLatLon0.09_PT038H.grib2 2026-04-19 20:51 425K
20260419T18Z_MSC_RDPS_AirTemp_IsbL-0175_RLatLon0.09_PT038H.grib2 2026-04-19 20:51 423K
20260419T18Z_MSC_RDPS_AirTemp_IsbL-0200_RLatLon0.09_PT038H.grib2 2026-04-19 20:51 424K
20260419T18Z_MSC_RDPS_AirTemp_IsbL-0225_RLatLon0.09_PT038H.grib2 2026-04-19 20:51 419K
20260419T18Z_MSC_RDPS_AirTemp_IsbL-0250_RLatLon0.09_PT038H.grib2 2026-04-19 20:51 420K
20260419T18Z_MSC_RDPS_AirTemp_IsbL-0275_RLatLon0.09_PT038H.grib2 2026-04-19 20:51 399K
20260419T18Z_MSC_RDPS_AirTemp_IsbL-0300_RLatLon0.09_PT038H.grib2 2026-04-19 20:51 404K
20260419T18Z_MSC_RDPS_AirTemp_IsbL-0350_RLatLon0.09_PT038H.grib2 2026-04-19 20:51 421K
20260419T18Z_MSC_RDPS_AirTemp_IsbL-0400_RLatLon0.09_PT038H.grib2 2026-04-19 20:51 427K
20260419T18Z_MSC_RDPS_AirTemp_IsbL-0450_RLatLon0.09_PT038H.grib2 2026-04-19 20:51 401K
20260419T18Z_MSC_RDPS_AirTemp_IsbL-0500_RLatLon0.09_PT038H.grib2 2026-04-19 20:51 415K
20260419T18Z_MSC_RDPS_AirTemp_IsbL-0550_RLatLon0.09_PT038H.grib2 2026-04-19 20:51 438K
20260419T18Z_MSC_RDPS_AirTemp_IsbL-0600_RLatLon0.09_PT038H.grib2 2026-04-19 20:51 457K
20260419T18Z_MSC_RDPS_AirTemp_IsbL-0650_RLatLon0.09_PT038H.grib2 2026-04-19 20:51 470K
20260419T18Z_MSC_RDPS_AirTemp_IsbL-0700_RLatLon0.09_PT038H.grib2 2026-04-19 20:51 492K
20260419T18Z_MSC_RDPS_AirTemp_IsbL-0750_RLatLon0.09_PT038H.grib2 2026-04-19 20:51 533K
20260419T18Z_MSC_RDPS_AirTemp_IsbL-0800_RLatLon0.09_PT038H.grib2 2026-04-19 20:51 588K
20260419T18Z_MSC_RDPS_AirTemp_IsbL-0850_RLatLon0.09_PT038H.grib2 2026-04-19 20:51 636K
20260419T18Z_MSC_RDPS_AirTemp_IsbL-0875_RLatLon0.09_PT038H.grib2 2026-04-19 20:51 517K
20260419T18Z_MSC_RDPS_AirTemp_IsbL-0900_RLatLon0.09_PT038H.grib2 2026-04-19 20:51 520K
20260419T18Z_MSC_RDPS_AirTemp_IsbL-0925_RLatLon0.09_PT038H.grib2 2026-04-19 20:51 519K
20260419T18Z_MSC_RDPS_AirTemp_IsbL-0950_RLatLon0.09_PT038H.grib2 2026-04-19 20:51 523K
20260419T18Z_MSC_RDPS_AirTemp_IsbL-0970_RLatLon0.09_PT038H.grib2 2026-04-19 20:51 524K
20260419T18Z_MSC_RDPS_AirTemp_IsbL-0985_RLatLon0.09_PT038H.grib2 2026-04-19 20:51 516K
20260419T18Z_MSC_RDPS_AirTemp_IsbL-1000_RLatLon0.09_PT038H.grib2 2026-04-19 20:51 502K
20260419T18Z_MSC_RDPS_AirTemp_IsbL-1015_RLatLon0.09_PT038H.grib2 2026-04-19 20:51 499K
20260419T18Z_MSC_RDPS_Albedo_Sfc_RLatLon0.09_PT038H.grib2 2026-04-19 20:51 166K
20260419T18Z_MSC_RDPS_CAPE_Sfc_RLatLon0.09_PT038H.grib2 2026-04-19 20:51 1.5M
20260419T18Z_MSC_RDPS_CIN_Sfc_RLatLon0.09_PT038H.grib2 2026-04-19 20:51 1.0M
20260419T18Z_MSC_RDPS_CloudWater_EAtm_RLatLon0.09_PT038H.grib2 2026-04-19 20:51 215K
20260419T18Z_MSC_RDPS_ConvectivePrecip-Accum_Sfc_RLatLon0.09_PT038H.grib2 2026-04-19 20:51 1.0M
20260419T18Z_MSC_RDPS_DewPointDepression_AGL-2m_RLatLon0.09_PT038H.grib2 2026-04-19 20:51 394K
20260419T18Z_MSC_RDPS_DewPointDepression_IsbL-0001_RLatLon0.09_PT038H.grib2 2026-04-19 20:51 193
20260419T18Z_MSC_RDPS_DewPointDepression_IsbL-0005_RLatLon0.09_PT038H.grib2 2026-04-19 20:51 193
20260419T18Z_MSC_RDPS_DewPointDepression_IsbL-0010_RLatLon0.09_PT038H.grib2 2026-04-19 20:51 193
20260419T18Z_MSC_RDPS_DewPointDepression_IsbL-0020_RLatLon0.09_PT038H.grib2 2026-04-19 20:51 193
20260419T18Z_MSC_RDPS_DewPointDepression_IsbL-0030_RLatLon0.09_PT038H.grib2 2026-04-19 20:51 193
20260419T18Z_MSC_RDPS_DewPointDepression_IsbL-0050_RLatLon0.09_PT038H.grib2 2026-04-19 20:51 97K
20260419T18Z_MSC_RDPS_DewPointDepression_IsbL-0100_RLatLon0.09_PT038H.grib2 2026-04-19 20:51 125K
20260419T18Z_MSC_RDPS_DewPointDepression_IsbL-0150_RLatLon0.09_PT038H.grib2 2026-04-19 20:51 152K
20260419T18Z_MSC_RDPS_DewPointDepression_IsbL-0175_RLatLon0.09_PT038H.grib2 2026-04-19 20:51 189K
20260419T18Z_MSC_RDPS_DewPointDepression_IsbL-0200_RLatLon0.09_PT038H.grib2 2026-04-19 20:51 226K
20260419T18Z_MSC_RDPS_DewPointDepression_IsbL-0225_RLatLon0.09_PT038H.grib2 2026-04-19 20:51 256K
20260419T18Z_MSC_RDPS_DewPointDepression_IsbL-0250_RLatLon0.09_PT038H.grib2 2026-04-19 20:51 289K
20260419T18Z_MSC_RDPS_DewPointDepression_IsbL-0275_RLatLon0.09_PT038H.grib2 2026-04-19 20:51 299K
20260419T18Z_MSC_RDPS_DewPointDepression_IsbL-0300_RLatLon0.09_PT038H.grib2 2026-04-19 20:51 321K
20260419T18Z_MSC_RDPS_DewPointDepression_IsbL-0350_RLatLon0.09_PT038H.grib2 2026-04-19 20:51 333K
20260419T18Z_MSC_RDPS_DewPointDepression_IsbL-0400_RLatLon0.09_PT038H.grib2 2026-04-19 20:51 348K
20260419T18Z_MSC_RDPS_DewPointDepression_IsbL-0450_RLatLon0.09_PT038H.grib2 2026-04-19 20:51 358K
20260419T18Z_MSC_RDPS_DewPointDepression_IsbL-0500_RLatLon0.09_PT038H.grib2 2026-04-19 20:51 373K
20260419T18Z_MSC_RDPS_DewPointDepression_IsbL-0550_RLatLon0.09_PT038H.grib2 2026-04-19 20:51 393K
20260419T18Z_MSC_RDPS_DewPointDepression_IsbL-0600_RLatLon0.09_PT038H.grib2 2026-04-19 20:51 402K
20260419T18Z_MSC_RDPS_DewPointDepression_IsbL-0650_RLatLon0.09_PT038H.grib2 2026-04-19 20:51 397K
20260419T18Z_MSC_RDPS_DewPointDepression_IsbL-0700_RLatLon0.09_PT038H.grib2 2026-04-19 20:51 400K
20260419T18Z_MSC_RDPS_DewPointDepression_IsbL-0750_RLatLon0.09_PT038H.grib2 2026-04-19 20:51 417K
20260419T18Z_MSC_RDPS_DewPointDepression_IsbL-0800_RLatLon0.09_PT038H.grib2 2026-04-19 20:51 450K
20260419T18Z_MSC_RDPS_DewPointDepression_IsbL-0850_RLatLon0.09_PT038H.grib2 2026-04-19 20:51 467K
20260419T18Z_MSC_RDPS_DewPointDepression_IsbL-0875_RLatLon0.09_PT038H.grib2 2026-04-19 20:51 459K
20260419T18Z_MSC_RDPS_DewPointDepression_IsbL-0900_RLatLon0.09_PT038H.grib2 2026-04-19 20:51 451K
20260419T18Z_MSC_RDPS_DewPointDepression_IsbL-0925_RLatLon0.09_PT038H.grib2 2026-04-19 20:51 441K
20260419T18Z_MSC_RDPS_DewPointDepression_IsbL-0950_RLatLon0.09_PT038H.grib2 2026-04-19 20:51 436K
20260419T18Z_MSC_RDPS_DewPointDepression_IsbL-0970_RLatLon0.09_PT038H.grib2 2026-04-19 20:51 433K
20260419T18Z_MSC_RDPS_DewPointDepression_IsbL-0985_RLatLon0.09_PT038H.grib2 2026-04-19 20:51 430K
20260419T18Z_MSC_RDPS_DewPointDepression_IsbL-1000_RLatLon0.09_PT038H.grib2 2026-04-19 20:51 425K
20260419T18Z_MSC_RDPS_DewPointDepression_IsbL-1015_RLatLon0.09_PT038H.grib2 2026-04-19 20:51 415K
20260419T18Z_MSC_RDPS_DewPoint_AGL-2m_RLatLon0.09_PT038H.grib2 2026-04-19 20:51 310K
20260419T18Z_MSC_RDPS_DownwardLongwaveRadiationFlux-Accum_Sfc_RLatLon0.09_PT038H.grib2 2026-04-19 20:51 494K
20260419T18Z_MSC_RDPS_DownwardShortwaveRadiationFlux-Accum_NTAtm_RLatLon0.09_PT038H.grib2 2026-04-19 20:51 97K
20260419T18Z_MSC_RDPS_DownwardShortwaveRadiationFlux-Accum_Sfc_RLatLon0.09_PT038H.grib2 2026-04-19 20:51 542K
20260419T18Z_MSC_RDPS_FreezingRain-Accum1h_Sfc_RLatLon0.09_PT038H.grib2 2026-04-19 20:51 22K
20260419T18Z_MSC_RDPS_FreezingRain-Accum_Sfc_RLatLon0.09_PT038H.grib2 2026-04-19 20:51 115K
20260419T18Z_MSC_RDPS_GeopotentialHeight_IsbL-0001_RLatLon0.09_PT038H.grib2 2026-04-19 20:51 270K
20260419T18Z_MSC_RDPS_GeopotentialHeight_IsbL-0005_RLatLon0.09_PT038H.grib2 2026-04-19 20:51 238K
20260419T18Z_MSC_RDPS_GeopotentialHeight_IsbL-0010_RLatLon0.09_PT038H.grib2 2026-04-19 20:51 343K
20260419T18Z_MSC_RDPS_GeopotentialHeight_IsbL-0020_RLatLon0.09_PT038H.grib2 2026-04-19 20:51 311K
20260419T18Z_MSC_RDPS_GeopotentialHeight_IsbL-0030_RLatLon0.09_PT038H.grib2 2026-04-19 20:51 312K
20260419T18Z_MSC_RDPS_GeopotentialHeight_IsbL-0050_RLatLon0.09_PT038H.grib2 2026-04-19 20:51 348K
20260419T18Z_MSC_RDPS_GeopotentialHeight_IsbL-0100_RLatLon0.09_PT038H.grib2 2026-04-19 20:51 293K
20260419T18Z_MSC_RDPS_GeopotentialHeight_IsbL-0150_RLatLon0.09_PT038H.grib2 2026-04-19 20:51 231K
20260419T18Z_MSC_RDPS_GeopotentialHeight_IsbL-0175_RLatLon0.09_PT038H.grib2 2026-04-19 20:51 265K
20260419T18Z_MSC_RDPS_GeopotentialHeight_IsbL-0200_RLatLon0.09_PT038H.grib2 2026-04-19 20:51 267K
20260419T18Z_MSC_RDPS_GeopotentialHeight_IsbL-0225_RLatLon0.09_PT038H.grib2 2026-04-19 20:51 268K
20260419T18Z_MSC_RDPS_GeopotentialHeight_IsbL-0250_RLatLon0.09_PT038H.grib2 2026-04-19 20:51 269K
20260419T18Z_MSC_RDPS_GeopotentialHeight_IsbL-0275_RLatLon0.09_PT038H.grib2 2026-04-19 20:51 268K
20260419T18Z_MSC_RDPS_GeopotentialHeight_IsbL-0300_RLatLon0.09_PT038H.grib2 2026-04-19 20:51 268K
20260419T18Z_MSC_RDPS_GeopotentialHeight_IsbL-0350_RLatLon0.09_PT038H.grib2 2026-04-19 20:51 234K
20260419T18Z_MSC_RDPS_GeopotentialHeight_IsbL-0400_RLatLon0.09_PT038H.grib2 2026-04-19 20:51 231K
20260419T18Z_MSC_RDPS_GeopotentialHeight_IsbL-0450_RLatLon0.09_PT038H.grib2 2026-04-19 20:51 302K
20260419T18Z_MSC_RDPS_GeopotentialHeight_IsbL-0500_RLatLon0.09_PT038H.grib2 2026-04-19 20:51 298K
20260419T18Z_MSC_RDPS_GeopotentialHeight_IsbL-0550_RLatLon0.09_PT038H.grib2 2026-04-19 20:51 294K
20260419T18Z_MSC_RDPS_GeopotentialHeight_IsbL-0600_RLatLon0.09_PT038H.grib2 2026-04-19 20:51 290K
20260419T18Z_MSC_RDPS_GeopotentialHeight_IsbL-0650_RLatLon0.09_PT038H.grib2 2026-04-19 20:51 260K
20260419T18Z_MSC_RDPS_GeopotentialHeight_IsbL-0700_RLatLon0.09_PT038H.grib2 2026-04-19 20:51 258K
20260419T18Z_MSC_RDPS_GeopotentialHeight_IsbL-0750_RLatLon0.09_PT038H.grib2 2026-04-19 20:51 260K
20260419T18Z_MSC_RDPS_GeopotentialHeight_IsbL-0800_RLatLon0.09_PT038H.grib2 2026-04-19 20:51 351K
20260419T18Z_MSC_RDPS_GeopotentialHeight_IsbL-0850_RLatLon0.09_PT038H.grib2 2026-04-19 20:51 358K
20260419T18Z_MSC_RDPS_GeopotentialHeight_IsbL-0875_RLatLon0.09_PT038H.grib2 2026-04-19 20:51 358K
20260419T18Z_MSC_RDPS_GeopotentialHeight_IsbL-0900_RLatLon0.09_PT038H.grib2 2026-04-19 20:51 364K
20260419T18Z_MSC_RDPS_GeopotentialHeight_IsbL-0925_RLatLon0.09_PT038H.grib2 2026-04-19 20:51 365K
20260419T18Z_MSC_RDPS_GeopotentialHeight_IsbL-0950_RLatLon0.09_PT038H.grib2 2026-04-19 20:51 369K
20260419T18Z_MSC_RDPS_GeopotentialHeight_IsbL-0970_RLatLon0.09_PT038H.grib2 2026-04-19 20:51 374K
20260419T18Z_MSC_RDPS_GeopotentialHeight_IsbL-0985_RLatLon0.09_PT038H.grib2 2026-04-19 20:51 383K
20260419T18Z_MSC_RDPS_GeopotentialHeight_IsbL-1000_RLatLon0.09_PT038H.grib2 2026-04-19 20:51 397K
20260419T18Z_MSC_RDPS_GeopotentialHeight_IsbL-1015_RLatLon0.09_PT038H.grib2 2026-04-19 20:51 413K
20260419T18Z_MSC_RDPS_Humidex_Sfc_RLatLon0.09_PT038H.grib2 2026-04-19 20:51 2.4M
20260419T18Z_MSC_RDPS_IcePellets-Accum1h_Sfc_RLatLon0.09_PT038H.grib2 2026-04-19 20:51 2.5K
20260419T18Z_MSC_RDPS_IcePellets-Accum_Sfc_RLatLon0.09_PT038H.grib2 2026-04-19 20:51 18K
20260419T18Z_MSC_RDPS_KIndex_Sfc_RLatLon0.09_PT038H.grib2 2026-04-19 20:51 2.4M
20260419T18Z_MSC_RDPS_LatentHeatNetFlux_Sfc_RLatLon0.09_PT038H.grib2 2026-04-19 20:51 313K
20260419T18Z_MSC_RDPS_LiftedIndex-MU-VT_IsbL-0500_RLatLon0.09_PT038H.grib2 2026-04-19 20:51 2.4M
20260419T18Z_MSC_RDPS_NetLongwaveRadiationFlux-Accum_Sfc_RLatLon0.09_PT038H.grib2 2026-04-19 20:51 503K
20260419T18Z_MSC_RDPS_NetShortwaveRadiationFlux-Accum_Sfc_RLatLon0.09_PT038H.grib2 2026-04-19 20:51 554K
20260419T18Z_MSC_RDPS_PlanetaryBoundaryLayerHeight_Sfc_RLatLon0.09_PT038H.grib2 2026-04-19 20:51 1.1M
20260419T18Z_MSC_RDPS_Precip-Accum1h_Sfc_RLatLon0.09_PT038H.grib2 2026-04-19 20:51 1.2M
20260419T18Z_MSC_RDPS_Precip-Accum_Sfc_RLatLon0.09_PT038H.grib2 2026-04-19 20:51 1.9M
20260419T18Z_MSC_RDPS_PrecipRate_Sfc_RLatLon0.09_PT038H.grib2 2026-04-19 20:51 184K
20260419T18Z_MSC_RDPS_PrecipType-Instant_Sfc_RLatLon0.09_PT038H.grib2 2026-04-19 20:51 589K
20260419T18Z_MSC_RDPS_Pressure-Trend3h_Sfc_RLatLon0.09_PT038H.grib2 2026-04-19 20:51 1.2M
20260419T18Z_MSC_RDPS_Pressure_MSL_RLatLon0.09_PT038H.grib2 2026-04-19 20:51 296K
20260419T18Z_MSC_RDPS_Pressure_PVU-1.5_RLatLon0.09_PT038H.grib2 2026-04-19 20:51 2.5M
20260419T18Z_MSC_RDPS_Pressure_PVU-1_RLatLon0.09_PT038H.grib2 2026-04-19 20:51 2.4M
20260419T18Z_MSC_RDPS_Pressure_PVU-2_RLatLon0.09_PT038H.grib2 2026-04-19 20:51 2.4M
20260419T18Z_MSC_RDPS_Pressure_Sfc_RLatLon0.09_PT038H.grib2 2026-04-19 20:51 503K
20260419T18Z_MSC_RDPS_RadiativeTemp_Sfc_RLatLon0.09_PT038H.grib2 2026-04-19 20:51 311K
20260419T18Z_MSC_RDPS_Rain-Accum1h_Sfc_RLatLon0.09_PT038H.grib2 2026-04-19 20:51 629K
20260419T18Z_MSC_RDPS_Rain-Accum_Sfc_RLatLon0.09_PT038H.grib2 2026-04-19 20:51 1.5M
20260419T18Z_MSC_RDPS_RelativeHumidity_AGL-2m_RLatLon0.09_PT038H.grib2 2026-04-19 20:51 1.0M
20260419T18Z_MSC_RDPS_RelativeHumidity_IsbL-0010_RLatLon0.09_PT038H.grib2 2026-04-19 20:51 632K
20260419T18Z_MSC_RDPS_RelativeHumidity_IsbL-0020_RLatLon0.09_PT038H.grib2 2026-04-19 20:51 573K
20260419T18Z_MSC_RDPS_RelativeHumidity_IsbL-0030_RLatLon0.09_PT038H.grib2 2026-04-19 20:51 548K
20260419T18Z_MSC_RDPS_RelativeHumidity_IsbL-0050_RLatLon0.09_PT038H.grib2 2026-04-19 20:51 387K
20260419T18Z_MSC_RDPS_RelativeHumidity_IsbL-0100_RLatLon0.09_PT038H.grib2 2026-04-19 20:51 272K
20260419T18Z_MSC_RDPS_RelativeHumidity_IsbL-0150_RLatLon0.09_PT038H.grib2 2026-04-19 20:51 376K
20260419T18Z_MSC_RDPS_RelativeHumidity_IsbL-0175_RLatLon0.09_PT038H.grib2 2026-04-19 20:51 471K
20260419T18Z_MSC_RDPS_RelativeHumidity_IsbL-0200_RLatLon0.09_PT038H.grib2 2026-04-19 20:51 561K
20260419T18Z_MSC_RDPS_RelativeHumidity_IsbL-0225_RLatLon0.09_PT038H.grib2 2026-04-19 20:51 629K
20260419T18Z_MSC_RDPS_RelativeHumidity_IsbL-0250_RLatLon0.09_PT038H.grib2 2026-04-19 20:51 682K
20260419T18Z_MSC_RDPS_RelativeHumidity_IsbL-0275_RLatLon0.09_PT038H.grib2 2026-04-19 20:51 700K
20260419T18Z_MSC_RDPS_RelativeHumidity_IsbL-0300_RLatLon0.09_PT038H.grib2 2026-04-19 20:51 740K
20260419T18Z_MSC_RDPS_RelativeHumidity_IsbL-0350_RLatLon0.09_PT038H.grib2 2026-04-19 20:51 764K
20260419T18Z_MSC_RDPS_RelativeHumidity_IsbL-0400_RLatLon0.09_PT038H.grib2 2026-04-19 20:51 786K
20260419T18Z_MSC_RDPS_RelativeHumidity_IsbL-0450_RLatLon0.09_PT038H.grib2 2026-04-19 20:51 799K
20260419T18Z_MSC_RDPS_RelativeHumidity_IsbL-0500_RLatLon0.09_PT038H.grib2 2026-04-19 20:51 817K
20260419T18Z_MSC_RDPS_RelativeHumidity_IsbL-0550_RLatLon0.09_PT038H.grib2 2026-04-19 20:51 855K
20260419T18Z_MSC_RDPS_RelativeHumidity_IsbL-0600_RLatLon0.09_PT038H.grib2 2026-04-19 20:51 876K
20260419T18Z_MSC_RDPS_RelativeHumidity_IsbL-0650_RLatLon0.09_PT038H.grib2 2026-04-19 20:51 877K
20260419T18Z_MSC_RDPS_RelativeHumidity_IsbL-0700_RLatLon0.09_PT038H.grib2 2026-04-19 20:51 888K
20260419T18Z_MSC_RDPS_RelativeHumidity_IsbL-0750_RLatLon0.09_PT038H.grib2 2026-04-19 20:51 923K
20260419T18Z_MSC_RDPS_RelativeHumidity_IsbL-0800_RLatLon0.09_PT038H.grib2 2026-04-19 20:51 1.0M
20260419T18Z_MSC_RDPS_RelativeHumidity_IsbL-0850_RLatLon0.09_PT038H.grib2 2026-04-19 20:51 1.0M
20260419T18Z_MSC_RDPS_RelativeHumidity_IsbL-0875_RLatLon0.09_PT038H.grib2 2026-04-19 20:51 1.0M
20260419T18Z_MSC_RDPS_RelativeHumidity_IsbL-0900_RLatLon0.09_PT038H.grib2 2026-04-19 20:51 1.0M
20260419T18Z_MSC_RDPS_RelativeHumidity_IsbL-0925_RLatLon0.09_PT038H.grib2 2026-04-19 20:51 1.0M
20260419T18Z_MSC_RDPS_RelativeHumidity_IsbL-0950_RLatLon0.09_PT038H.grib2 2026-04-19 20:51 1.0M
20260419T18Z_MSC_RDPS_RelativeHumidity_IsbL-0970_RLatLon0.09_PT038H.grib2 2026-04-19 20:51 1.0M
20260419T18Z_MSC_RDPS_RelativeHumidity_IsbL-0985_RLatLon0.09_PT038H.grib2 2026-04-19 20:51 1.0M
20260419T18Z_MSC_RDPS_RelativeHumidity_IsbL-1000_RLatLon0.09_PT038H.grib2 2026-04-19 20:51 1.0M
20260419T18Z_MSC_RDPS_RelativeHumidity_IsbL-1015_RLatLon0.09_PT038H.grib2 2026-04-19 20:51 1.0M
20260419T18Z_MSC_RDPS_Runoff-Accum_Sfc_RLatLon0.09_PT038H.grib2 2026-04-19 20:51 66K
20260419T18Z_MSC_RDPS_SWEATIndex_Sfc_RLatLon0.09_PT038H.grib2 2026-04-19 20:51 2.4M
20260419T18Z_MSC_RDPS_SeeingIndex_EAtm_RLatLon0.09_PT038H.grib2 2026-04-19 20:51 1.0M
20260419T18Z_MSC_RDPS_SensibleHeatNetFlux_Sfc_RLatLon0.09_PT038H.grib2 2026-04-19 20:51 304K
20260419T18Z_MSC_RDPS_ShowalterIndex_IsbL-0500_RLatLon0.09_PT038H.grib2 2026-04-19 20:51 2.6M
20260419T18Z_MSC_RDPS_SkyTransparencyIndex_EAtm_RLatLon0.09_PT038H.grib2 2026-04-19 20:51 720K
20260419T18Z_MSC_RDPS_Snow-Accum1h_Sfc_RLatLon0.09_PT038H.grib2 2026-04-19 20:51 304K
20260419T18Z_MSC_RDPS_Snow-Accum_Sfc_RLatLon0.09_PT038H.grib2 2026-04-19 20:51 670K
20260419T18Z_MSC_RDPS_SnowDensity_Sfc_RLatLon0.09_PT038H.grib2 2026-04-19 20:51 173K
20260419T18Z_MSC_RDPS_SnowDepth_Sfc_RLatLon0.09_PT038H.grib2 2026-04-19 20:51 708K
20260419T18Z_MSC_RDPS_SoilTemp_DBS-0to10cm_RLatLon0.09_PT038H.grib2 2026-04-19 20:51 234K
20260419T18Z_MSC_RDPS_SoilTemp_Sfc_RLatLon0.09_PT038H.grib2 2026-04-19 20:51 289K
20260419T18Z_MSC_RDPS_SoilVolumetricIceContent_Sfc_RLatLon0.09_PT038H.grib2 2026-04-19 20:51 171K
20260419T18Z_MSC_RDPS_SoilVolumetricWaterContent_DBS-0to10cm_RLatLon0.09_PT038H.grib2 2026-04-19 20:51 250K
20260419T18Z_MSC_RDPS_SoilVolumetricWaterContent_DBS-0to1cm_RLatLon0.09_PT038H.grib2 2026-04-19 20:51 338K
20260419T18Z_MSC_RDPS_SpecificHumidity_AGL-120m_RLatLon0.09_PT038H.grib2 2026-04-19 20:51 472K
20260419T18Z_MSC_RDPS_SpecificHumidity_AGL-2m_RLatLon0.09_PT038H.grib2 2026-04-19 20:51 635K
20260419T18Z_MSC_RDPS_SpecificHumidity_AGL-40m_RLatLon0.09_PT038H.grib2 2026-04-19 20:51 478K
20260419T18Z_MSC_RDPS_SpecificHumidity_AGL-80m_RLatLon0.09_PT038H.grib2 2026-04-19 20:51 474K
20260419T18Z_MSC_RDPS_SpecificHumidity_IsbL-0001_RLatLon0.09_PT038H.grib2 2026-04-19 20:51 316K
20260419T18Z_MSC_RDPS_SpecificHumidity_IsbL-0005_RLatLon0.09_PT038H.grib2 2026-04-19 20:51 341K
20260419T18Z_MSC_RDPS_SpecificHumidity_IsbL-0010_RLatLon0.09_PT038H.grib2 2026-04-19 20:51 376K
20260419T18Z_MSC_RDPS_SpecificHumidity_IsbL-0020_RLatLon0.09_PT038H.grib2 2026-04-19 20:51 373K
20260419T18Z_MSC_RDPS_SpecificHumidity_IsbL-0030_RLatLon0.09_PT038H.grib2 2026-04-19 20:51 439K
20260419T18Z_MSC_RDPS_SpecificHumidity_IsbL-0050_RLatLon0.09_PT038H.grib2 2026-04-19 20:51 469K
20260419T18Z_MSC_RDPS_SpecificHumidity_IsbL-0100_RLatLon0.09_PT038H.grib2 2026-04-19 20:51 412K
20260419T18Z_MSC_RDPS_SpecificHumidity_IsbL-0150_RLatLon0.09_PT038H.grib2 2026-04-19 20:51 437K
20260419T18Z_MSC_RDPS_SpecificHumidity_IsbL-0175_RLatLon0.09_PT038H.grib2 2026-04-19 20:51 429K
20260419T18Z_MSC_RDPS_SpecificHumidity_IsbL-0200_RLatLon0.09_PT038H.grib2 2026-04-19 20:51 553K
20260419T18Z_MSC_RDPS_SpecificHumidity_IsbL-0225_RLatLon0.09_PT038H.grib2 2026-04-19 20:51 554K
20260419T18Z_MSC_RDPS_SpecificHumidity_IsbL-0250_RLatLon0.09_PT038H.grib2 2026-04-19 20:51 544K
20260419T18Z_MSC_RDPS_SpecificHumidity_IsbL-0275_RLatLon0.09_PT038H.grib2 2026-04-19 20:51 460K
20260419T18Z_MSC_RDPS_SpecificHumidity_IsbL-0300_RLatLon0.09_PT038H.grib2 2026-04-19 20:51 530K
20260419T18Z_MSC_RDPS_SpecificHumidity_IsbL-0350_RLatLon0.09_PT038H.grib2 2026-04-19 20:51 529K
20260419T18Z_MSC_RDPS_SpecificHumidity_IsbL-0400_RLatLon0.09_PT038H.grib2 2026-04-19 20:51 516K
20260419T18Z_MSC_RDPS_SpecificHumidity_IsbL-0450_RLatLon0.09_PT038H.grib2 2026-04-19 20:51 574K
20260419T18Z_MSC_RDPS_SpecificHumidity_IsbL-0500_RLatLon0.09_PT038H.grib2 2026-04-19 20:51 520K
20260419T18Z_MSC_RDPS_SpecificHumidity_IsbL-0550_RLatLon0.09_PT038H.grib2 2026-04-19 20:51 584K
20260419T18Z_MSC_RDPS_SpecificHumidity_IsbL-0600_RLatLon0.09_PT038H.grib2 2026-04-19 20:51 653K
20260419T18Z_MSC_RDPS_SpecificHumidity_IsbL-0650_RLatLon0.09_PT038H.grib2 2026-04-19 20:51 560K
20260419T18Z_MSC_RDPS_SpecificHumidity_IsbL-0700_RLatLon0.09_PT038H.grib2 2026-04-19 20:51 592K
20260419T18Z_MSC_RDPS_SpecificHumidity_IsbL-0750_RLatLon0.09_PT038H.grib2 2026-04-19 20:51 639K
20260419T18Z_MSC_RDPS_SpecificHumidity_IsbL-0800_RLatLon0.09_PT038H.grib2 2026-04-19 20:51 711K
20260419T18Z_MSC_RDPS_SpecificHumidity_IsbL-0850_RLatLon0.09_PT038H.grib2 2026-04-19 20:51 785K
20260419T18Z_MSC_RDPS_SpecificHumidity_IsbL-0875_RLatLon0.09_PT038H.grib2 2026-04-19 20:51 800K
20260419T18Z_MSC_RDPS_SpecificHumidity_IsbL-0900_RLatLon0.09_PT038H.grib2 2026-04-19 20:51 809K
20260419T18Z_MSC_RDPS_SpecificHumidity_IsbL-0925_RLatLon0.09_PT038H.grib2 2026-04-19 20:51 813K
20260419T18Z_MSC_RDPS_SpecificHumidity_IsbL-0950_RLatLon0.09_PT038H.grib2 2026-04-19 20:51 812K
20260419T18Z_MSC_RDPS_SpecificHumidity_IsbL-0970_RLatLon0.09_PT038H.grib2 2026-04-19 20:51 808K
20260419T18Z_MSC_RDPS_SpecificHumidity_IsbL-0985_RLatLon0.09_PT038H.grib2 2026-04-19 20:51 802K
20260419T18Z_MSC_RDPS_SpecificHumidity_IsbL-1000_RLatLon0.09_PT038H.grib2 2026-04-19 20:51 655K
20260419T18Z_MSC_RDPS_SpecificHumidity_IsbL-1015_RLatLon0.09_PT038H.grib2 2026-04-19 20:51 646K
20260419T18Z_MSC_RDPS_SpecificHumidity_Sfc_RLatLon0.09_PT038H.grib2 2026-04-19 20:51 286K
20260419T18Z_MSC_RDPS_StormRelativeHelicity_EtaL-10000_RLatLon0.09_PT038H.grib2 2026-04-19 20:51 1.2M
20260419T18Z_MSC_RDPS_StormSeverityIndex_EtaL-10000_RLatLon0.09_PT038H.grib2 2026-04-19 20:51 1.2M
20260419T18Z_MSC_RDPS_Thickness_IsbL-0850to0700_RLatLon0.09_PT038H.grib2 2026-04-19 20:51 252K
20260419T18Z_MSC_RDPS_Thickness_IsbL-1000to0500_RLatLon0.09_PT038H.grib2 2026-04-19 20:51 201K
20260419T18Z_MSC_RDPS_Thickness_IsbL-1000to0850_RLatLon0.09_PT038H.grib2 2026-04-19 20:51 262K
20260419T18Z_MSC_RDPS_TotalCloudCover_Sfc_RLatLon0.09_PT038H.grib2 2026-04-19 20:51 650K
20260419T18Z_MSC_RDPS_TotalTotalsIndex_Sfc_RLatLon0.09_PT038H.grib2 2026-04-19 20:51 2.4M
20260419T18Z_MSC_RDPS_UVIndex-ClearSky_Sfc_RLatLon0.09_PT038H.grib2 2026-04-19 20:51 80K
20260419T18Z_MSC_RDPS_UVIndex_Sfc_RLatLon0.09_PT038H.grib2 2026-04-19 20:51 135K
20260419T18Z_MSC_RDPS_UpwardLongwaveRadiationFlux_NTAtm_RLatLon0.09_PT038H.grib2 2026-04-19 20:51 478K
20260419T18Z_MSC_RDPS_UpwardShortwaveRadiationFlux_NTAtm_RLatLon0.09_PT038H.grib2 2026-04-19 20:51 155K
20260419T18Z_MSC_RDPS_VerticalVelocity_IsbL-0250_RLatLon0.09_PT038H.grib2 2026-04-19 20:51 588K
20260419T18Z_MSC_RDPS_VerticalVelocity_IsbL-0500_RLatLon0.09_PT038H.grib2 2026-04-19 20:51 560K
20260419T18Z_MSC_RDPS_VerticalVelocity_IsbL-0700_RLatLon0.09_PT038H.grib2 2026-04-19 20:51 614K
20260419T18Z_MSC_RDPS_VerticalVelocity_IsbL-0850_RLatLon0.09_PT038H.grib2 2026-04-19 20:51 701K
20260419T18Z_MSC_RDPS_VerticalWindShear_EtaL-6500_RLatLon0.09_PT038H.grib2 2026-04-19 20:51 1.2M
20260419T18Z_MSC_RDPS_WindChill_Sfc_RLatLon0.09_PT038H.grib2 2026-04-19 20:51 1.3M
20260419T18Z_MSC_RDPS_WindDir_AGL-10m_RLatLon0.09_PT038H.grib2 2026-04-19 20:51 1.0M
20260419T18Z_MSC_RDPS_WindDir_AGL-120m_RLatLon0.09_PT038H.grib2 2026-04-19 20:51 608K
20260419T18Z_MSC_RDPS_WindDir_AGL-40m_RLatLon0.09_PT038H.grib2 2026-04-19 20:51 642K
20260419T18Z_MSC_RDPS_WindDir_AGL-80m_RLatLon0.09_PT038H.grib2 2026-04-19 20:51 621K
20260419T18Z_MSC_RDPS_WindDir_IsbL-0001_RLatLon0.09_PT038H.grib2 2026-04-19 20:51 283K
20260419T18Z_MSC_RDPS_WindDir_IsbL-0005_RLatLon0.09_PT038H.grib2 2026-04-19 20:51 373K
20260419T18Z_MSC_RDPS_WindDir_IsbL-0010_RLatLon0.09_PT038H.grib2 2026-04-19 20:51 363K
20260419T18Z_MSC_RDPS_WindDir_IsbL-0020_RLatLon0.09_PT038H.grib2 2026-04-19 20:51 408K
20260419T18Z_MSC_RDPS_WindDir_IsbL-0030_RLatLon0.09_PT038H.grib2 2026-04-19 20:51 420K
20260419T18Z_MSC_RDPS_WindDir_IsbL-0050_RLatLon0.09_PT038H.grib2 2026-04-19 20:51 426K
20260419T18Z_MSC_RDPS_WindDir_IsbL-0100_RLatLon0.09_PT038H.grib2 2026-04-19 20:51 419K
20260419T18Z_MSC_RDPS_WindDir_IsbL-0150_RLatLon0.09_PT038H.grib2 2026-04-19 20:51 421K
20260419T18Z_MSC_RDPS_WindDir_IsbL-0175_RLatLon0.09_PT038H.grib2 2026-04-19 20:51 435K
20260419T18Z_MSC_RDPS_WindDir_IsbL-0200_RLatLon0.09_PT038H.grib2 2026-04-19 20:51 449K
20260419T18Z_MSC_RDPS_WindDir_IsbL-0225_RLatLon0.09_PT038H.grib2 2026-04-19 20:51 451K
20260419T18Z_MSC_RDPS_WindDir_IsbL-0250_RLatLon0.09_PT038H.grib2 2026-04-19 20:51 445K
20260419T18Z_MSC_RDPS_WindDir_IsbL-0275_RLatLon0.09_PT038H.grib2 2026-04-19 20:51 459K
20260419T18Z_MSC_RDPS_WindDir_IsbL-0300_RLatLon0.09_PT038H.grib2 2026-04-19 20:51 459K
20260419T18Z_MSC_RDPS_WindDir_IsbL-0350_RLatLon0.09_PT038H.grib2 2026-04-19 20:51 476K
20260419T18Z_MSC_RDPS_WindDir_IsbL-0400_RLatLon0.09_PT038H.grib2 2026-04-19 20:51 495K
20260419T18Z_MSC_RDPS_WindDir_IsbL-0450_RLatLon0.09_PT038H.grib2 2026-04-19 20:51 512K
20260419T18Z_MSC_RDPS_WindDir_IsbL-0500_RLatLon0.09_PT038H.grib2 2026-04-19 20:51 535K
20260419T18Z_MSC_RDPS_WindDir_IsbL-0550_RLatLon0.09_PT038H.grib2 2026-04-19 20:51 559K
20260419T18Z_MSC_RDPS_WindDir_IsbL-0600_RLatLon0.09_PT038H.grib2 2026-04-19 20:51 584K
20260419T18Z_MSC_RDPS_WindDir_IsbL-0650_RLatLon0.09_PT038H.grib2 2026-04-19 20:51 619K
20260419T18Z_MSC_RDPS_WindDir_IsbL-0700_RLatLon0.09_PT038H.grib2 2026-04-19 20:51 663K
20260419T18Z_MSC_RDPS_WindDir_IsbL-0750_RLatLon0.09_PT038H.grib2 2026-04-19 20:51 705K
20260419T18Z_MSC_RDPS_WindDir_IsbL-0800_RLatLon0.09_PT038H.grib2 2026-04-19 20:51 771K
20260419T18Z_MSC_RDPS_WindDir_IsbL-0850_RLatLon0.09_PT038H.grib2 2026-04-19 20:51 845K
20260419T18Z_MSC_RDPS_WindDir_IsbL-0875_RLatLon0.09_PT038H.grib2 2026-04-19 20:51 876K
20260419T18Z_MSC_RDPS_WindDir_IsbL-0900_RLatLon0.09_PT038H.grib2 2026-04-19 20:51 899K
20260419T18Z_MSC_RDPS_WindDir_IsbL-0925_RLatLon0.09_PT038H.grib2 2026-04-19 20:51 913K
20260419T18Z_MSC_RDPS_WindDir_IsbL-0950_RLatLon0.09_PT038H.grib2 2026-04-19 20:51 915K
20260419T18Z_MSC_RDPS_WindDir_IsbL-0970_RLatLon0.09_PT038H.grib2 2026-04-19 20:51 923K
20260419T18Z_MSC_RDPS_WindDir_IsbL-0985_RLatLon0.09_PT038H.grib2 2026-04-19 20:51 934K
20260419T18Z_MSC_RDPS_WindDir_IsbL-1000_RLatLon0.09_PT038H.grib2 2026-04-19 20:51 951K
20260419T18Z_MSC_RDPS_WindDir_IsbL-1015_RLatLon0.09_PT038H.grib2 2026-04-19 20:51 971K
20260419T18Z_MSC_RDPS_WindGust-Max_AGL-10m_RLatLon0.09_PT038H.grib2 2026-04-19 20:51 965K
20260419T18Z_MSC_RDPS_WindGust-Min_AGL-10m_RLatLon0.09_PT038H.grib2 2026-04-19 20:51 1.0M
20260419T18Z_MSC_RDPS_WindGust_AGL-10m_RLatLon0.09_PT038H.grib2 2026-04-19 20:51 1.0M
20260419T18Z_MSC_RDPS_WindSpeed_AGL-10m_RLatLon0.09_PT038H.grib2 2026-04-19 20:51 850K
20260419T18Z_MSC_RDPS_WindSpeed_AGL-120m_RLatLon0.09_PT038H.grib2 2026-04-19 20:51 558K
20260419T18Z_MSC_RDPS_WindSpeed_AGL-40m_RLatLon0.09_PT038H.grib2 2026-04-19 20:51 550K
20260419T18Z_MSC_RDPS_WindSpeed_AGL-80m_RLatLon0.09_PT038H.grib2 2026-04-19 20:51 549K
20260419T18Z_MSC_RDPS_WindSpeed_IsbL-0001_RLatLon0.09_PT038H.grib2 2026-04-19 20:51 245K
20260419T18Z_MSC_RDPS_WindSpeed_IsbL-0005_RLatLon0.09_PT038H.grib2 2026-04-19 20:51 300K
20260419T18Z_MSC_RDPS_WindSpeed_IsbL-0010_RLatLon0.09_PT038H.grib2 2026-04-19 20:51 311K
20260419T18Z_MSC_RDPS_WindSpeed_IsbL-0020_RLatLon0.09_PT038H.grib2 2026-04-19 20:51 333K
20260419T18Z_MSC_RDPS_WindSpeed_IsbL-0030_RLatLon0.09_PT038H.grib2 2026-04-19 20:51 332K
20260419T18Z_MSC_RDPS_WindSpeed_IsbL-0050_RLatLon0.09_PT038H.grib2 2026-04-19 20:51 480K
20260419T18Z_MSC_RDPS_WindSpeed_IsbL-0100_RLatLon0.09_PT038H.grib2 2026-04-19 20:51 493K
20260419T18Z_MSC_RDPS_WindSpeed_IsbL-0150_RLatLon0.09_PT038H.grib2 2026-04-19 20:51 380K
20260419T18Z_MSC_RDPS_WindSpeed_IsbL-0175_RLatLon0.09_PT038H.grib2 2026-04-19 20:51 405K
20260419T18Z_MSC_RDPS_WindSpeed_IsbL-0200_RLatLon0.09_PT038H.grib2 2026-04-19 20:51 424K
20260419T18Z_MSC_RDPS_WindSpeed_IsbL-0225_RLatLon0.09_PT038H.grib2 2026-04-19 20:51 448K
20260419T18Z_MSC_RDPS_WindSpeed_IsbL-0250_RLatLon0.09_PT038H.grib2 2026-04-19 20:51 449K
20260419T18Z_MSC_RDPS_WindSpeed_IsbL-0275_RLatLon0.09_PT038H.grib2 2026-04-19 20:51 461K
20260419T18Z_MSC_RDPS_WindSpeed_IsbL-0300_RLatLon0.09_PT038H.grib2 2026-04-19 20:51 457K
20260419T18Z_MSC_RDPS_WindSpeed_IsbL-0350_RLatLon0.09_PT038H.grib2 2026-04-19 20:51 468K
20260419T18Z_MSC_RDPS_WindSpeed_IsbL-0400_RLatLon0.09_PT038H.grib2 2026-04-19 20:51 471K
20260419T18Z_MSC_RDPS_WindSpeed_IsbL-0450_RLatLon0.09_PT038H.grib2 2026-04-19 20:51 474K
20260419T18Z_MSC_RDPS_WindSpeed_IsbL-0500_RLatLon0.09_PT038H.grib2 2026-04-19 20:51 466K
20260419T18Z_MSC_RDPS_WindSpeed_IsbL-0550_RLatLon0.09_PT038H.grib2 2026-04-19 20:51 589K
20260419T18Z_MSC_RDPS_WindSpeed_IsbL-0600_RLatLon0.09_PT038H.grib2 2026-04-19 20:51 601K
20260419T18Z_MSC_RDPS_WindSpeed_IsbL-0650_RLatLon0.09_PT038H.grib2 2026-04-19 20:51 619K
20260419T18Z_MSC_RDPS_WindSpeed_IsbL-0700_RLatLon0.09_PT038H.grib2 2026-04-19 20:51 644K
20260419T18Z_MSC_RDPS_WindSpeed_IsbL-0750_RLatLon0.09_PT038H.grib2 2026-04-19 20:51 674K
20260419T18Z_MSC_RDPS_WindSpeed_IsbL-0800_RLatLon0.09_PT038H.grib2 2026-04-19 20:51 723K
20260419T18Z_MSC_RDPS_WindSpeed_IsbL-0850_RLatLon0.09_PT038H.grib2 2026-04-19 20:51 776K
20260419T18Z_MSC_RDPS_WindSpeed_IsbL-0875_RLatLon0.09_PT038H.grib2 2026-04-19 20:51 796K
20260419T18Z_MSC_RDPS_WindSpeed_IsbL-0900_RLatLon0.09_PT038H.grib2 2026-04-19 20:51 810K
20260419T18Z_MSC_RDPS_WindSpeed_IsbL-0925_RLatLon0.09_PT038H.grib2 2026-04-19 20:51 821K
20260419T18Z_MSC_RDPS_WindSpeed_IsbL-0950_RLatLon0.09_PT038H.grib2 2026-04-19 20:51 870K
20260419T18Z_MSC_RDPS_WindSpeed_IsbL-0970_RLatLon0.09_PT038H.grib2 2026-04-19 20:51 871K
20260419T18Z_MSC_RDPS_WindSpeed_IsbL-0985_RLatLon0.09_PT038H.grib2 2026-04-19 20:51 867K
20260419T18Z_MSC_RDPS_WindSpeed_IsbL-1000_RLatLon0.09_PT038H.grib2 2026-04-19 20:51 860K
20260419T18Z_MSC_RDPS_WindSpeed_IsbL-1015_RLatLon0.09_PT038H.grib2 2026-04-19 20:51 853K
20260419T18Z_MSC_RDPS_WindU_AGL-10m_RLatLon0.09_PT038H.grib2 2026-04-19 20:51 436K
20260419T18Z_MSC_RDPS_WindU_AGL-120m_RLatLon0.09_PT038H.grib2 2026-04-19 20:51 425K
20260419T18Z_MSC_RDPS_WindU_AGL-40m_RLatLon0.09_PT038H.grib2 2026-04-19 20:51 545K
20260419T18Z_MSC_RDPS_WindU_AGL-80m_RLatLon0.09_PT038H.grib2 2026-04-19 20:51 426K
20260419T18Z_MSC_RDPS_WindU_IsbL-0001_RLatLon0.09_PT038H.grib2 2026-04-19 20:51 237K
20260419T18Z_MSC_RDPS_WindU_IsbL-0005_RLatLon0.09_PT038H.grib2 2026-04-19 20:51 334K
20260419T18Z_MSC_RDPS_WindU_IsbL-0010_RLatLon0.09_PT038H.grib2 2026-04-19 20:51 346K
20260419T18Z_MSC_RDPS_WindU_IsbL-0020_RLatLon0.09_PT038H.grib2 2026-04-19 20:51 332K
20260419T18Z_MSC_RDPS_WindU_IsbL-0030_RLatLon0.09_PT038H.grib2 2026-04-19 20:51 362K
20260419T18Z_MSC_RDPS_WindU_IsbL-0050_RLatLon0.09_PT038H.grib2 2026-04-19 20:51 364K
20260419T18Z_MSC_RDPS_WindU_IsbL-0100_RLatLon0.09_PT038H.grib2 2026-04-19 20:51 447K
20260419T18Z_MSC_RDPS_WindU_IsbL-0150_RLatLon0.09_PT038H.grib2 2026-04-19 20:51 397K
20260419T18Z_MSC_RDPS_WindU_IsbL-0175_RLatLon0.09_PT038H.grib2 2026-04-19 20:51 419K
20260419T18Z_MSC_RDPS_WindU_IsbL-0200_RLatLon0.09_PT038H.grib2 2026-04-19 20:51 436K
20260419T18Z_MSC_RDPS_WindU_IsbL-0225_RLatLon0.09_PT038H.grib2 2026-04-19 20:51 440K
20260419T18Z_MSC_RDPS_WindU_IsbL-0250_RLatLon0.09_PT038H.grib2 2026-04-19 20:51 340K
20260419T18Z_MSC_RDPS_WindU_IsbL-0275_RLatLon0.09_PT038H.grib2 2026-04-19 20:51 351K
20260419T18Z_MSC_RDPS_WindU_IsbL-0300_RLatLon0.09_PT038H.grib2 2026-04-19 20:51 346K
20260419T18Z_MSC_RDPS_WindU_IsbL-0350_RLatLon0.09_PT038H.grib2 2026-04-19 20:51 354K
20260419T18Z_MSC_RDPS_WindU_IsbL-0400_RLatLon0.09_PT038H.grib2 2026-04-19 20:51 357K
20260419T18Z_MSC_RDPS_WindU_IsbL-0450_RLatLon0.09_PT038H.grib2 2026-04-19 20:51 463K
20260419T18Z_MSC_RDPS_WindU_IsbL-0500_RLatLon0.09_PT038H.grib2 2026-04-19 20:51 471K
20260419T18Z_MSC_RDPS_WindU_IsbL-0550_RLatLon0.09_PT038H.grib2 2026-04-19 20:51 475K
20260419T18Z_MSC_RDPS_WindU_IsbL-0600_RLatLon0.09_PT038H.grib2 2026-04-19 20:51 485K
20260419T18Z_MSC_RDPS_WindU_IsbL-0650_RLatLon0.09_PT038H.grib2 2026-04-19 20:51 501K
20260419T18Z_MSC_RDPS_WindU_IsbL-0700_RLatLon0.09_PT038H.grib2 2026-04-19 20:51 522K
20260419T18Z_MSC_RDPS_WindU_IsbL-0750_RLatLon0.09_PT038H.grib2 2026-04-19 20:51 549K
20260419T18Z_MSC_RDPS_WindU_IsbL-0800_RLatLon0.09_PT038H.grib2 2026-04-19 20:51 591K
20260419T18Z_MSC_RDPS_WindU_IsbL-0850_RLatLon0.09_PT038H.grib2 2026-04-19 20:51 635K
20260419T18Z_MSC_RDPS_WindU_IsbL-0875_RLatLon0.09_PT038H.grib2 2026-04-19 20:51 652K
20260419T18Z_MSC_RDPS_WindU_IsbL-0900_RLatLon0.09_PT038H.grib2 2026-04-19 20:51 664K
20260419T18Z_MSC_RDPS_WindU_IsbL-0925_RLatLon0.09_PT038H.grib2 2026-04-19 20:51 671K
20260419T18Z_MSC_RDPS_WindU_IsbL-0950_RLatLon0.09_PT038H.grib2 2026-04-19 20:51 664K
20260419T18Z_MSC_RDPS_WindU_IsbL-0970_RLatLon0.09_PT038H.grib2 2026-04-19 20:51 661K
20260419T18Z_MSC_RDPS_WindU_IsbL-0985_RLatLon0.09_PT038H.grib2 2026-04-19 20:51 659K
20260419T18Z_MSC_RDPS_WindU_IsbL-1000_RLatLon0.09_PT038H.grib2 2026-04-19 20:51 796K
20260419T18Z_MSC_RDPS_WindU_IsbL-1015_RLatLon0.09_PT038H.grib2 2026-04-19 20:51 790K
20260419T18Z_MSC_RDPS_WindV_AGL-10m_RLatLon0.09_PT038H.grib2 2026-04-19 20:51 436K
20260419T18Z_MSC_RDPS_WindV_AGL-120m_RLatLon0.09_PT038H.grib2 2026-04-19 20:51 424K
20260419T18Z_MSC_RDPS_WindV_AGL-40m_RLatLon0.09_PT038H.grib2 2026-04-19 20:51 546K
20260419T18Z_MSC_RDPS_WindV_AGL-80m_RLatLon0.09_PT038H.grib2 2026-04-19 20:51 543K
20260419T18Z_MSC_RDPS_WindV_IsbL-0001_RLatLon0.09_PT038H.grib2 2026-04-19 20:51 287K
20260419T18Z_MSC_RDPS_WindV_IsbL-0005_RLatLon0.09_PT038H.grib2 2026-04-19 20:51 330K
20260419T18Z_MSC_RDPS_WindV_IsbL-0010_RLatLon0.09_PT038H.grib2 2026-04-19 20:51 344K
20260419T18Z_MSC_RDPS_WindV_IsbL-0020_RLatLon0.09_PT038H.grib2 2026-04-19 20:51 365K
20260419T18Z_MSC_RDPS_WindV_IsbL-0030_RLatLon0.09_PT038H.grib2 2026-04-19 20:51 328K
20260419T18Z_MSC_RDPS_WindV_IsbL-0050_RLatLon0.09_PT038H.grib2 2026-04-19 20:51 366K
20260419T18Z_MSC_RDPS_WindV_IsbL-0100_RLatLon0.09_PT038H.grib2 2026-04-19 20:51 343K
20260419T18Z_MSC_RDPS_WindV_IsbL-0150_RLatLon0.09_PT038H.grib2 2026-04-19 20:51 394K
20260419T18Z_MSC_RDPS_WindV_IsbL-0175_RLatLon0.09_PT038H.grib2 2026-04-19 20:51 322K
20260419T18Z_MSC_RDPS_WindV_IsbL-0200_RLatLon0.09_PT038H.grib2 2026-04-19 20:51 335K
20260419T18Z_MSC_RDPS_WindV_IsbL-0225_RLatLon0.09_PT038H.grib2 2026-04-19 20:51 339K
20260419T18Z_MSC_RDPS_WindV_IsbL-0250_RLatLon0.09_PT038H.grib2 2026-04-19 20:51 363K
20260419T18Z_MSC_RDPS_WindV_IsbL-0275_RLatLon0.09_PT038H.grib2 2026-04-19 20:51 374K
20260419T18Z_MSC_RDPS_WindV_IsbL-0300_RLatLon0.09_PT038H.grib2 2026-04-19 20:51 370K
20260419T18Z_MSC_RDPS_WindV_IsbL-0350_RLatLon0.09_PT038H.grib2 2026-04-19 20:51 377K
20260419T18Z_MSC_RDPS_WindV_IsbL-0400_RLatLon0.09_PT038H.grib2 2026-04-19 20:51 381K
20260419T18Z_MSC_RDPS_WindV_IsbL-0450_RLatLon0.09_PT038H.grib2 2026-04-19 20:51 361K
20260419T18Z_MSC_RDPS_WindV_IsbL-0500_RLatLon0.09_PT038H.grib2 2026-04-19 20:51 366K
20260419T18Z_MSC_RDPS_WindV_IsbL-0550_RLatLon0.09_PT038H.grib2 2026-04-19 20:51 474K
20260419T18Z_MSC_RDPS_WindV_IsbL-0600_RLatLon0.09_PT038H.grib2 2026-04-19 20:51 483K
20260419T18Z_MSC_RDPS_WindV_IsbL-0650_RLatLon0.09_PT038H.grib2 2026-04-19 20:51 499K
20260419T18Z_MSC_RDPS_WindV_IsbL-0700_RLatLon0.09_PT038H.grib2 2026-04-19 20:51 520K
20260419T18Z_MSC_RDPS_WindV_IsbL-0750_RLatLon0.09_PT038H.grib2 2026-04-19 20:51 533K
20260419T18Z_MSC_RDPS_WindV_IsbL-0800_RLatLon0.09_PT038H.grib2 2026-04-19 20:51 578K
20260419T18Z_MSC_RDPS_WindV_IsbL-0850_RLatLon0.09_PT038H.grib2 2026-04-19 20:51 634K
20260419T18Z_MSC_RDPS_WindV_IsbL-0875_RLatLon0.09_PT038H.grib2 2026-04-19 20:51 650K
20260419T18Z_MSC_RDPS_WindV_IsbL-0900_RLatLon0.09_PT038H.grib2 2026-04-19 20:51 654K
20260419T18Z_MSC_RDPS_WindV_IsbL-0925_RLatLon0.09_PT038H.grib2 2026-04-19 20:51 661K
20260419T18Z_MSC_RDPS_WindV_IsbL-0950_RLatLon0.09_PT038H.grib2 2026-04-19 20:51 658K
20260419T18Z_MSC_RDPS_WindV_IsbL-0970_RLatLon0.09_PT038H.grib2 2026-04-19 20:51 659K
20260419T18Z_MSC_RDPS_WindV_IsbL-0985_RLatLon0.09_PT038H.grib2 2026-04-19 20:51 658K
20260419T18Z_MSC_RDPS_WindV_IsbL-1000_RLatLon0.09_PT038H.grib2 2026-04-19 20:51 656K
20260419T18Z_MSC_RDPS_WindV_IsbL-1015_RLatLon0.09_PT038H.grib2 2026-04-19 20:51 790K